Location: Chervonnoye
(48.6000°N, 34.4000°E)
Time: 14:08:40
(UTC+00:00)

Cosmos 2285 Rocket - Pass Details

Date: 23 November 2020
Orbit: 971 x 998 km, 74.0° (Epoch: 27 January)

Event Time Altitude Azimuth Distance (km) Brightness Sun altitude
Rises 15:26:39 0° 339° (NNW) 3,725 7.1 -14.9°
Reaches altitude 10° 15:29:21 10° 345° (NNW) 2,769 6.4 -15.3°
Maximum altitude 15:35:32 47° 59° (ENE) 1,292 4.2 -16.3°
Drops below altitude 10° 15:41:38 10° 132° (SE) 2,737 6.0 -17.3°
Enters shadow 15:43:24 - 137° (SE) 3,360 6.5 -17.6°
